This is the latest recevied weather packets stored in our database for station/object AG1T-20. If no packets are shown the sender has not sent any weather packets the latest 10 day(s).
| Time | Temp. | Humidity | Pressure | Rain* | Wind** | Luminosity | Snow |
|---|---|---|---|---|---|---|---|
| 1788542405 | 25.56° C | 25% | 1020.8 hPa | 0 mm | - | 843 W/m² | - |
| 1788541805 | 25.56° C | 23% | 1020.8 hPa | 0 mm | - | 838 W/m² | - |
| 1788541205 | 25.56° C | 22% | 1020.8 hPa | 0 mm | - | 831 W/m² | - |
| 1788540605 | 25° C | 25% | 1020.7 hPa | 0 mm | - | 826 W/m² | - |
| 1788540005 | 25° C | 23% | 1020.6 hPa | 0 mm | - | 818 W/m² | - |
| 1788539405 | 25° C | 22% | 1021.1 hPa | 0 mm | - | 806 W/m² | - |
| 1788538804 | 24.44° C | 22% | 1021 hPa | 0 mm | - | 789 W/m² | - |
| 1788538234 | 24.44° C | 20% | 1020.8 hPa | 0 mm | - | 778 W/m² | - |
| 1788537605 | 24.44° C | 21% | 1021.1 hPa | 0 mm | - | 757 W/m² | - |
| 1788537005 | 24.44° C | 24% | 1020.9 hPa | 0 mm | - | 738 W/m² | - |
| 1788536404 | 23.33° C | 24% | 1021.4 hPa | 0 mm | - | 718 W/m² | - |
| 1788535804 | 23.33° C | 23% | 1021.7 hPa | 0 mm | - | 692 W/m² | - |
| 1788535221 | 22.78° C | 23% | 1021.7 hPa | 0 mm | - | 668 W/m² | - |
| 1788534605 | 22.22° C | 23% | 1022 hPa | 0 mm | - | 639 W/m² | - |
| 1788534004 | 22.22° C | 22% | 1022.1 hPa | 0 mm | - | 611 W/m² | - |
| 1788533405 | 21.11° C | 23% | 1022.8 hPa | 0 mm | - | 579 W/m² | - |
| 1788532804 | 20.56° C | 24% | 1023 hPa | 0 mm | - | 546 W/m² | - |
| 1788532205 | 20.56° C | 24% | 1023 hPa | 0 mm | - | 511 W/m² | - |
| 1788531605 | 20° C | 25% | 1023.1 hPa | 0 mm | - | 473 W/m² | - |
| 1788531005 | 20° C | 24% | 1023 hPa | 0 mm | - | 432 W/m² | - |
| 1788530404 | 19.44° C | 24% | 1022.9 hPa | 0 mm | - | 389 W/m² | - |
| 1788529804 | 20° C | 23% | 1022.8 hPa | 0 mm | - | 342 W/m² | - |
| 1788529204 | 18.33° C | 25% | 1023.5 hPa | 0 mm | - | 290 W/m² | - |
| 1788528604 | 18.33° C | 25% | 1023.5 hPa | 0 mm | - | 18 W/m² | - |
| 1788528004 | 18.33° C | 25% | 1023.2 hPa | 0 mm | - | 13 W/m² | - |
* Rain latest hour (hover to see other rain measurements)
** Current wind speed in m/s (hover to see current wind gust speed)